(510851) = 2010 RS36 = 2013 CT67

Discovered at Mount Lemmon on 2010-09-02 by Mt. Lemmon Survey.

Orbit

Orbit type: Main Belt

Note: WebGL enabled browser required.

epoch2023-09-13.0
epoch JD2460200.5
perihelion date2023-03-18.87722
perihelion JD2460022.37722
argument of perihelion (°)62.81142
ascending node (°)156.85173
inclination (°)12.45377
eccentricity0.1006565
perihelion distance (AU)2.5040758
Tisserand w.r.t. Jupiter3.3
ΔV w.r.t. Earth (km/sec)10.6
semimajor axis (AU)2.7843375
mean anomaly (°)37.78683
mean daily motion (°/day)0.21213930
aphelion distance (AU)3.065
period (years)4.65
P-vector [x]-0.76158239
P-vector [y]-0.64425039
P-vector [z]-0.07024031
Q-vector [x]0.64249936
Q-vector [y]-0.73641238
Q-vector [z]-0.21187585
absolute magnitude17.01
phase slope0.15
uncertainty0
referenceMPEC 2023-O15
observations used163
oppositions12
arc length (days)7030
first opposition used2004
last opposition used2023
residual rms (arc-secs)0.79
perturbers coarse indicatorM-v
perturbers precise indicator003Ek
first observation date used2004-04-16.0
last observation date used2023-07-16.0
computer nameMPCLINUX
JD of orbit computation2458108.135430
perihelion JD uncertainty (days)2.6913E-04
argument of perihelion uncertainty (°)5.3540E-05
ascending node uncertainty (°)2.3392E-05
inclination uncertainty (°)7.5928E-06
eccentricity uncertainty 6.9150E-08
perihelion distance uncertainty (AU)2.1788E-07
Minimum Orbit Intersection Distances (in AU)
for orbit epoch: 2460000.5, reference: E2023-O15
Mercury2.06538
Venus1.79276
Earth1.52729
Mars0.91336
Jupiter1.96416
Saturn6.14207
Uranus15.803
Neptune26.8264

Observations

160 total observations over interval: 2004 04 16.13118 – 2023 07 16.338222
These data are available for download (format description).

Date (UT) J2000 RA J2000 Dec Magn Location Ref
2004 04 16.13118 12 07 13.32 +10 28 34.6 21.5 V 691 – Steward Observatory, Kitt Peak-Spacewatch MPS 465644
2004 04 16.16369 12 07 12.23 +10 28 45.9 21.4 V 691 – Steward Observatory, Kitt Peak-Spacewatch MPS 465644
2004 04 16.19473 12 07 11.22 +10 28 56.8 21.5 V 691 – Steward Observatory, Kitt Peak-Spacewatch MPS 465644
2005 07 05.27198 20 38 05.72 -06 33 08.9 21.4 V 691 – Steward Observatory, Kitt Peak-Spacewatch MPS 465644
2005 07 05.28925 20 38 05.08 -06 33 13.3 21.2 V 691 – Steward Observatory, Kitt Peak-Spacewatch MPS 465644
2005 07 05.30660 20 38 04.40 -06 33 17.3 20.9 V 691 – Steward Observatory, Kitt Peak-Spacewatch MPS 465644
2009 05 25.31865 15 08 03.80 +02 39 36.0 20.3 V G96 – Mt. Lemmon Survey MPS 465644
2009 05 25.32707 15 08 03.44 +02 39 36.6 20.6 V G96 – Mt. Lemmon Survey MPS 465644
2009 05 25.33714 15 08 03.04 +02 39 37.9 20.7 V G96 – Mt. Lemmon Survey MPS 465644
2009 05 25.36234 15 08 01.89 +02 39 39.8 20.5 V G96 – Mt. Lemmon Survey MPS 465644
2010 09 02.22484 22 38 45.38 -09 01 43.1 19.8 V G96 – Mt. Lemmon Survey MPS 347248
2010 09 02.23138 22 38 45.02 -09 01 45.6 20.4 V G96 – Mt. Lemmon Survey MPS 347248
2010 09 02.23750 22 38 44.75 -09 01 48.3 20.8 V 291 – LPL/Spacewatch II MPS 347248
2010 09 02.23795 22 38 44.73 -09 01 49.2 20.4 V G96 – Mt. Lemmon Survey MPS 347248
2010 09 02.24345 22 38 44.47 -09 01 51.5 20.7 V 291 – LPL/Spacewatch II MPS 347248
2010 09 02.24456 22 38 44.41 -09 01 52.4 20.4 V G96 – Mt. Lemmon Survey MPS 347248
2010 09 02.24771 22 38 44.26 -09 01 53.8 20.7 V 291 – LPL/Spacewatch II MPS 347248
2010 09 06.27548 22 35 45.20 -09 36 13.9 20.7 V G96 – Mt. Lemmon Survey MPS 347248
2010 09 06.28304 22 35 44.88 -09 36 17.7 20.8 V G96 – Mt. Lemmon Survey MPS 347248
2010 09 06.29062 22 35 44.55 -09 36 21.5 20.6 V G96 – Mt. Lemmon Survey MPS 347248
2010 09 06.29862 22 35 44.19 -09 36 25.6 20.6 V G96 – Mt. Lemmon Survey MPS 347248
2011 11 25.44413 03 56 14.941 +01 53 45.50 22.0 w F51 – Pan-STARRS 1, Haleakala MPS 465644
2011 11 25.46184 03 56 14.005 +01 53 42.77 21.8 w F51 – Pan-STARRS 1, Haleakala MPS 465644
2011 11 25.47649 03 56 13.220 +01 53 40.61 22.0 w F51 – Pan-STARRS 1, Haleakala MPS 465644
2011 11 25.49104 03 56 12.476 +01 53 38.43 22.1 w F51 – Pan-STARRS 1, Haleakala MPS 465644
2013 02 08.49404 10 02 54.225 +08 00 56.85 20.3 w F51 – Pan-STARRS 1, Haleakala MPS 454051
2013 02 08.50992 10 02 53.486 +08 01 05.01 20.3 w F51 – Pan-STARRS 1, Haleakala MPS 454051
2013 02 08.52583 10 02 52.735 +08 01 13.13 20.3 w F51 – Pan-STARRS 1, Haleakala MPS 454051
2013 02 10.47444 10 01 23.684 +08 18 06.65 20.9 g F51 – Pan-STARRS 1, Haleakala MPS 454051
2013 02 10.48769 10 01 23.028 +08 18 13.45 21.0 g F51 – Pan-STARRS 1, Haleakala MPS 454051
2013 02 10.51346 10 01 21.793 +08 18 27.30 20.2 r F51 – Pan-STARRS 1, Haleakala MPS 454051
2013 02 16.28633 09 56 49.56 +09 10 11.5 19.7 V G96 – Mt. Lemmon Survey MPS 456494
2013 02 16.29214 09 56 49.27 +09 10 14.6 19.8 V G96 – Mt. Lemmon Survey MPS 456494
2013 02 16.29795 09 56 48.98 +09 10 17.8 19.9 V G96 – Mt. Lemmon Survey MPS 456494
2013 02 16.30425 09 56 48.66 +09 10 21.3 19.7 V G96 – Mt. Lemmon Survey MPS 456494
2013 03 04.30646 09 44 35.525 +11 35 53.00 20.4 w F51 – Pan-STARRS 1, Haleakala MPS 457834
2013 03 04.32069 09 44 34.910 +11 36 00.59 20.4 w F51 – Pan-STARRS 1, Haleakala MPS 457834
2013 03 04.33493 09 44 34.294 +11 36 08.04 20.4 w F51 – Pan-STARRS 1, Haleakala MPS 457834
2013 03 13.18266 09 39 07.59 +12 49 21.8 20.0 V G96 – Mt. Lemmon Survey MPS 459396
2013 03 13.18841 09 39 07.38 +12 49 24.5 20.1 V G96 – Mt. Lemmon Survey MPS 459396
2013 03 13.19426 09 39 07.16 +12 49 26.7 20.0 V G96 – Mt. Lemmon Survey MPS 459396
2013 03 13.20013 09 39 07.02 +12 49 29.7 20.4 V G96 – Mt. Lemmon Survey MPS 459396
2013 04 01.19300 09 33 19.11 +14 48 56.4 20.9 V G96 – Mt. Lemmon Survey MPS 461714
2013 04 01.20134 09 33 19.04 +14 48 59.1 20.8 V G96 – Mt. Lemmon Survey MPS 461714
2013 04 01.20973 09 33 19.00 +14 49 01.1 20.7 V G96 – Mt. Lemmon Survey MPS 461714
2013 04 01.21818 09 33 18.93 +14 49 03.8 20.3 V G96 – Mt. Lemmon Survey MPS 461714
2016 12 22.36963 05 47 16.526 +06 05 50.99 21.2 w F51 – Pan-STARRS 1, Haleakala MPS 752852
2016 12 22.39539 05 47 15.092 +06 05 53.14 21.3 w F51 – Pan-STARRS 1, Haleakala MPS 752852
2016 12 22.40836 05 47 14.374 +06 05 54.13 21.2 w F51 – Pan-STARRS 1, Haleakala MPS 752852
2017 12 20.51386 12 24 51.75 -00 55 32.6 22.5 G G96 – Mt. Lemmon Survey MPS 849187
2017 12 20.51900 12 24 52.09 -00 55 32.6 22.5 G G96 – Mt. Lemmon Survey MPS 849187
2017 12 20.52413 12 24 52.42 -00 55 33.6 22.5 G G96 – Mt. Lemmon Survey MPS 849187
2018 03 19.39955 12 53 10.532 +04 59 35.72 20.4 w F51 – Pan-STARRS 1, Haleakala MPS 878887
2018 03 19.41247 12 53 10.016 +04 59 43.74 20.4 w F51 – Pan-STARRS 1, Haleakala MPS 878887
2018 03 19.42543 12 53 09.507 +04 59 51.86 20.5 w F51 – Pan-STARRS 1, Haleakala MPS 878887
2018 03 19.43197 12 53 09.02 +04 59 54.6 19.9 G G96 – Mt. Lemmon Survey MPS 878887
2018 03 19.43715 12 53 08.78 +04 59 58.0 20.1 G G96 – Mt. Lemmon Survey MPS 878887
2018 03 19.43853 12 53 08.983 +04 59 59.98 20.4 w F51 – Pan-STARRS 1, Haleakala MPS 878887
2018 03 19.44232 12 53 08.58 +05 00 01.5 20.6 G G96 – Mt. Lemmon Survey MPS 878887
2018 03 19.44748 12 53 08.39 +05 00 04.2 20.6 G G96 – Mt. Lemmon Survey MPS 878887
2018 04 12.27265 12 36 30.80 +08 43 08.3 20.4 G G96 – Mt. Lemmon Survey MPS 881737
2018 04 12.27779 12 36 30.57 +08 43 10.3 20.6 G G96 – Mt. Lemmon Survey MPS 881737
2018 04 12.28297 12 36 30.34 +08 43 12.5 20.8 G G96 – Mt. Lemmon Survey MPS 881737
2018 04 12.28812 12 36 30.19 +08 43 15.0 20.2 G G96 – Mt. Lemmon Survey MPS 881737
2018 04 20.28436 12 31 31.38 +09 36 21.0 21.2 G G96 – Mt. Lemmon Survey MPS 884409
2018 04 20.28951 12 31 31.21 +09 36 22.5 20.6 G G96 – Mt. Lemmon Survey MPS 884409
2018 04 20.29465 12 31 31.03 +09 36 23.9 20.7 G G96 – Mt. Lemmon Survey MPS 884409
2018 04 20.29980 12 31 30.84 +09 36 25.3 20.9 G G96 – Mt. Lemmon Survey MPS 884409
2019 06 30.50885 21 07 29.583 -05 58 31.50 20.9 w F51 – Pan-STARRS 1, Haleakala MPS 1012438
2019 06 30.52119 21 07 29.289 -05 58 33.58 20.9 w F51 – Pan-STARRS 1, Haleakala MPS 1012438
2019 06 30.53355 21 07 28.982 -05 58 35.59 20.8 w F51 – Pan-STARRS 1, Haleakala MPS 1012438
2019 06 30.54589 21 07 28.679 -05 58 37.63 20.8 w F51 – Pan-STARRS 1, Haleakala MPS 1012438
2019 07 03.34980 21 06 19.93 -06 06 54.3 20.9 G G96 – Mt. Lemmon Survey MPS 1012438
2019 07 03.35498 21 06 19.82 -06 06 55.5 20.8 G G96 – Mt. Lemmon Survey MPS 1012438
2019 07 03.36016 21 06 19.66 -06 06 55.9 20.9 G G96 – Mt. Lemmon Survey MPS 1012438
2019 07 03.36533 21 06 19.54 -06 06 57.1 21.1 G G96 – Mt. Lemmon Survey MPS 1012438
2019 07 25.38800 20 52 27.059 -07 57 35.85 20.5 w F51 – Pan-STARRS 1, Haleakala MPS 1014840
2019 07 25.40001 20 52 26.482 -07 57 40.62 20.5 w F51 – Pan-STARRS 1, Haleakala MPS 1014840
2019 07 25.41201 20 52 25.904 -07 57 45.40 20.5 w F51 – Pan-STARRS 1, Haleakala MPS 1014840
2019 07 28.42701 20 50 04.826 -08 18 13.97 20.5 w F52 – Pan-STARRS 2, Haleakala MPS 1014840
2019 07 28.43925 20 50 04.227 -08 18 18.92 20.4 w F52 – Pan-STARRS 2, Haleakala MPS 1014840
2019 07 28.45149 20 50 03.622 -08 18 24.18 20.3 w F52 – Pan-STARRS 2, Haleakala MPS 1014840
2019 07 28.46372 20 50 03.022 -08 18 29.22 20.4 w F52 – Pan-STARRS 2, Haleakala MPS 1014840
2019 07 29.40361 20 49 18.587 -08 25 03.95 20.6 w F52 – Pan-STARRS 2, Haleakala MPS 1015669
2019 07 29.44050 20 49 16.763 -08 25 19.66 20.5 w F52 – Pan-STARRS 2, Haleakala MPS 1015669
2019 08 22.24482 20 31 33.52 -11 26 47.5 21.3 G G96 – Mt. Lemmon Survey MPS 1023802
2019 08 22.25053 20 31 33.27 -11 26 50.3 20.8 G G96 – Mt. Lemmon Survey MPS 1023802
2019 08 22.25625 20 31 33.05 -11 26 52.9 20.7 G G96 – Mt. Lemmon Survey MPS 1023802
2019 08 22.26198 20 31 32.83 -11 26 55.8 21.0 G G96 – Mt. Lemmon Survey MPS 1023802
2019 09 29.26478 20 23 56.961 -15 15 40.04 21.5 w F51 – Pan-STARRS 1, Haleakala MPS 1056814
2019 09 29.27773 20 23 57.110 -15 15 42.84 21.3 w F51 – Pan-STARRS 1, Haleakala MPS 1056814
2019 09 29.29060 20 23 57.302 -15 15 46.29 21.4 w F51 – Pan-STARRS 1, Haleakala MPS 1056814
2020 11 08.33349 02 23 31.013 -02 28 16.50 21.6 w F51 – Pan-STARRS 1, Haleakala MPS 1299866
